Dewpoint
18 20 21 18 17 16 17 18 16 19 15 18 18 18 20 22 20 21 21 19 21 19 19 20 21 21 21 21 21 21 21 21 20 21 21 20 20 21 23 24 24 24 25 25 26 27 27 27 28 28 28 27 27 26 26 25 24 24 23 23 23 22 22 22 21 20 20 20 21 21 22 23 25 26 25 26 27 29 31 28 26 25 26 27 30
17 18 19 17 15 15 15 16 16 16 13 15 17 17 19 20 20 20 19 20 20 19 19 20 20 20 20 20 20 20 21 20 20 20 20 20 19 21 22 22 22 22 23 23 24 26 26 27 27 27 27 27 27 26 26 25 24 23 22 22 22 22 23 22 21 20 19 19 18 21 21 24 23 26 25 25 26 27 28 29 26 23 23 24 25
18 19 17 15 15 16 14 15 14 13 14 14 17 16 18 20 20 19 19 19 19 18 18 19 19 19 19 19 19 19 20 19 20 20 19 19 19 19 20 20 20 20 20 21 21 23 24 24 25 26 27 27 26 26 26 25 25 24 24 23 22 21 22 22 22 21 20 20 19 18 20 23 23 23 26 26 26 26 26 28 26 24 23 22 22
18 17 16 14 15 14 13 14 13 13 13 14 16 16 19 20 20 19 19 19 18 17 18 18 17 17 17 17 17 18 18 18 18 19 19 19 19 19 18 18 19 19 20 20 20 21 22 22 23 24 25 26 26 26 26 25 25 25 24 24 23 22 21 21 22 21 20 19 19 18 21 21 23 24 26 26 25 26 26 27 26 25 23 22 20
16 16 15 13 14 13 13 13 13 13 13 13 14 15 18 18 19 19 19 18 17 17 17 17 16 16 16 16 16 15 16 16 17 17 18 18 18 18 18 18 18 19 19 19 22 20 21 21 22 22 24 24 24 25 25 25 25 25 24 24 23 23 22 21 21 20 20 19 19 20 20 21 22 23 25 25 25 25 25 25 24 24 23 22 22
16 16 15 14 15 14 14 13 14 14 14 14 14 14 15 15 16 16 17 17 16 16 16 15 16 15 15 15 15 14 14 15 15 15 15 15 15 16 16 17 17 18 18 18 18 19 20 20 20 21 22 22 22 23 24 25 25 25 25 25 24 24 23 21 20 19 19 19 18 18 20 20 21 22 24 25 24 23 24 24 23 22 21 21 21
17 16 16 15 15 15 14 14 14 14 15 15 15 14 14 14 14 14 15 15 15 14 14 14 14 14 14 14 13 13 13 13 13 12 12 12 13 13 14 15 15 16 17 17 17 17 18 19 20 21 21 21 22 22 23 24 25 25 25 25 25 25 24 23 22 20 19 18 18 17 17 19 20 19 22 25 24 23 22 23 22 21 21 20 21
17 16 16 15 15 15 15 15 15 16 16 15 15 15 14 14 14 15 15 15 14 14 14 14 14 14 14 13 13 13 11 10 10 10 10 11 12 12 13 15 15 16 17 17 17 17 17 18 19 20 21 21 21 22 22 22 23 23 24 25 25 25 24 24 23 22 22 20 19 18 16 16 20 21 23 23 23 22 23 22 21 21 20 20 20
17 16 16 15 15 15 16 16 17 16 15 15 15 15 15 15 16 16 16 15 15 14 14 14 14 14 14 13 12 11 10 9 9 9 11 13 14 15 16 17 17 17 18 18 18 18 18 18 19 19 21 24 26 26 26 26 24 24 24 24 25 25 26 25 25 24 23 23 22 20 18 17 18 19 20 21 22 21 22 21 21 21 20 20 20
16 15 15 15 15 15 15 15 14 14 14 15 15 15 16 16 16 16 15 14 14 14 14 15 15 14 13 12 11 10 9 8 13 18 20 18 18 18 18 18 18 17 17 17 17 17 17 18 19 23 25 26 26 27 29 29 29 27 25 24 25 26 26 26 26 25 25 24 23 22 22 19 17 18 19 20 21 21 20 20 20 20 19 19 19
15 15 14 15 15 14 14 14 14 14 15 15 15 16 16 15 15 14 14 13 13 13 14 13 12 11 11 10 9 9 9 9 17 20 22 23 20 18 18 19 18 18 18 17 17 17 17 17 17 20 22 23 23 26 28 29 29 30 30 30 29 27 25 25 26 26 25 25 25 25 23 21 20 18 18 19 20 21 20 20 20 19 18 18 18
15 15 14 14 14 14 14 14 14 14 15 15 14 13 13 12 11 11 11 11 11 12 11 10 9 9 9 9 8 8 8 15 19 20 22 23 23 19 19 19 19 18 18 18 18 18 18 18 18 19 18 18 18 18 22 25 27 28 29 30 30 31 31 28 26 25 26 25 25 25 24 22 21 19 18 18 19 20 20 19 19 18 18 18 17
14 14 14 13 13 13 13 13 13 13 13 12 11 10 9 9 9 9 9 10 10 9 8 8 8 8 8 7 7 7 7 14 18 20 21 22 23 21 18 18 18 18 17 17 17 17 17 17 17 17 18 22 22 20 19 19 25 26 27 28 28 30 31 32 33 29 27 26 26 25 24 23 22 21 19 18 20 19 20 19 18 18 17 17 17
13 12 12 11 12 12 12 11 10 9 9 8 7 7 7 7 7 8 8 8 8 7 7 7 7 6 6 6 6 6 6 12 18 19 20 20 21 20 16 17 17 17 17 16 16 16 15 15 15 16 16 16 16 17 17 17 17 17 18 19 20 23 28 31 31 32 31 29 27 26 25 25 23 23 21 22 20 20 20 20 19 19 18 17 17
10 11 10 11 10 9 9 7 6 5 5 5 5 5 5 6 6 6 6 6 6 5 5 4 5 5 5 5 5 5 4 14 17 18 18 19 20 19 14 13 12 11 10 11 11 12 12 12 12 12 13 14 15 16 16 16 18 20 20 21 22 21 21 22 23 26 27 29 29 28 26 26 25 24 24 22 20 20 20 20 20 20 20 19 18
9 9 9 9 9 7 4 3 3 4 4 4 3 4 4 4 4 4 4 4 4 4 3 4 3 3 4 4 3 3 2 13 15 16 17 19 19 12 10 9 9 8 8 7 7 8 9 11 12 12 13 13 17 20 20 17 19 20 21 22 22 22 22 25 28 29 25 25 26 27 28 28 30 26 26 23 21 22 25 24 24 23 22 20 19
8 8 8 8 5 3 2 2 2 2 2 2 2 1 2 2 2 2 2 2 2 1 1 2 2 2 2 2 2 1 1 7 13 15 16 18 16 9 9 8 8 8 6 7 6 6 7 8 8 9 9 10 16 20 21 21 18 19 19 20 21 23 23 23 26 29 30 30 31 32 32 33 33 33 33 33 27 26 24 22 22 23 20 19 19
7 7 6 3 2 1 1 0 1 1 0 -1 -0 1 0 1 0 1 0 -0 -0 -0 0 1 1 1 1 0 0 0 1 6 13 14 15 16 15 9 8 6 6 6 6 6 6 6 7 14 14 9 9 10 18 21 22 19 16 17 17 18 19 19 20 22 22 23 28 30 30 31 32 32 33 34 34 34 34 31 23 21 23 22 20 20 18
6 3 2 1 1 -0 -0 -1 -1 -1 -2 -1 -2 -2 -1 -1 -0 -0 -0 -1 -1 -1 -0 -1 -1 -1 -1 -1 5 2 -0 4 11 13 14 15 11 9 8 8 7 7 6 6 6 6 5 10 14 13 11 13 19 20 21 18 16 18 18 18 18 18 19 21 21 22 23 23 24 26 27 30 30 30 30 33 34 33 27 23 24 23 20 20 20
1 0 0 0 -0 -2 -2 -2 -2 -2 -2 -2 -2 -2 -2 -2 -2 -2 -2 -2 -2 -2 -2 -2 -3 -2 -2 -2 -2 -2 -2 -1 1 12 13 15 15 9 8 7 7 6 6 6 6 6 5 4 7 14 17 18 19 21 21 22 18 17 16 15 16 17 18 21 23 24 23 23 23 23 23 24 26 28 29 29 30 31 30 26 23 24 23 21 20
-0 -0 -1 -2 -3 -4 -4 -4 -3 -4 -3 -3 -2 -2 -3 -2 -2 -3 -3 -3 -3 -3 -4 -4 -4 -3 -3 -2 -2 -2 -2 -2 -0 11 13 14 15 13 7 7 7 7 7 7 7 6 6 6 5 12 16 17 17 18 18 18 18 15 16 17 16 17 20 17 19 21 23 24 24 24 23 24 25 26 27 28 29 29 30 30 25 22 23 22 20
-1 -3 -4 -5 -5 -5 -6 -5 -4 -4 -4 -4 -5 -4 -4 -4 -4 -4 -4 -4 -5 -5 -5 -4 -4 -4 -4 -4 -4 -4 -1 3 -1 7 12 13 14 15 9 8 9 8 8 8 8 8 8 8 6 10 15 17 17 18 19 19 19 13 12 20 21 23 20 20 19 17 17 20 23 23 23 23 23 24 25 27 28 29 29 29 29 25 22 23 22
-3 -4 -5 -6 -6 -6 -7 -7 -6 -6 -6 -5 -6 -6 -5 -5 -5 -5 -5 -5 -5 -6 -6 -6 -6 -6 -6 -5 -5 -4 -4 -3 6 3 11 13 15 15 15 13 16 11 9 9 9 9 9 8 8 14 16 17 17 18 19 19 18 14 20 21 22 22 21 18 19 19 18 18 19 22 22 23 23 23 24 25 27 28 28 29 30 29 27 24 21
-6 -7 -7 -7 -7 -7 -7 -7 -7 -7 -7 -6 -7 -7 -7 -6 -6 -5 -5 -6 -6 -6 -6 -6 -7 -7 -7 -7 -6 -5 -4 -4 4 9 7 13 15 16 17 17 17 11 10 9 9 8 8 7 9 15 17 18 19 19 20 19 16 20 21 21 21 20 17 19 20 20 20 20 20 21 22 22 23 23 23 25 26 27 28 29 29 29 28 27 24
-8 -9 -9 -9 -10 -9 -10 -9 -9 -9 -8 -7 -7 -6 -7 -7 -7 -7 -6 -7 -7 -7 -7 -7 -8 -8 -8 -7 -7 -6 -4 -3 -3 2 11 13 15 16 16 16 17 17 10 9 9 8 13 17 19 18 18 18 19 18 17 16 17 17 17 17 16 14 16 17 18 19 20 19 20 21 23 23 22 23 23 24 25 27 27 28 29 30 30 29 28
-10 -10 -11 -11 -10 -10 -10 -9 -9 -8 -8 -7 -7 -6 -7 -6 -6 -7 -7 -7 -7 -8 -8 -8 -8 -8 -7 -6 -5 -4 -2 -1 -0 0 5 8 10 13 14 16 15 16 15 12 17 18 18 18 18 18 17 15 10 9 9 9 15 18 18 18 15 15 16 17 17 18 19 20 20 21 23 23 22 23 24 24 25 25 26 26 27 28 29 28 26
-10 -10 -11 -10 -10 -10 -10 -9 -8 -8 -10 -8 -7 -7 -6 -6 -7 -7 -7 -8 -8 -8 -7 -7 -6 -6 -5 -4 -2 -1 1 2 3 4 4 4 4 6 7 7 13 15 11 9 13 11 10 12 11 15 16 18 18 18 17 16 14 13 13 14 15 16 17 17 16 16 19 20 21 21 23 24 24 24 24 24 25 25 26 26 26 26 27 27 27
-11 -11 -12 -12 -9 -10 -9 -6 -6 -7 -8 -9 -8 -8 -7 -7 -7 -8 -8 -8 -7 -6 -5 -4 -4 -3 -3 -1 1 4 4 5 5 6 6 6 6 7 8 8 8 6 6 6 7 7 8 13 13 10 10 10 10 10 10 10 11 13 13 14 13 14 15 17 18 19 19 21 21 21 23 25 25 24 24 24 24 25 26 25 25 25 24 25 25
-11 -13 -12 -11 -11 -9 -8 -9 -9 -8 -8 -9 -9 -8 -8 -8 -7 -7 -5 -4 -3 -2 0 3 4 4 5 6 6 5 6 6 7 12 11 16 12 10 10 9 9 9 12 17 11 9 8 8 7 8 8 8 8 9 11 11 10 10 10 11 12 14 15 16 16 18 20 22 22 22 23 23 25 25 24 24 24 25 26 25 25 24 22 22 23
-14 -13 -11 -12 -11 -10 -9 -10 -11 -9 -9 -9 -9 -8 -4 6 5 2 1 7 12 14 14 7 8 9 9 9 9 8 7 8 16 18 18 18 17 18 18 18 17 14 16 19 17 11 11 11 11 11 10 9 9 9 9 9 10 10 11 14 13 12 14 16 17 18 21 22 21 22 23 26 24 24 24 24 24 25 25 26 25 24 21 20 21
-12 -11 -11 -11 -9 -8 -9 -9 -9 -9 -9 -8 -9 -8 -8 -7 5 10 11 11 13 14 14 15 16 16 11 9 11 16 17 17 17 18 18 17 16 18 19 19 19 18 19 15 13 12 12 11 10 10 10 10 10 10 11 11 11 11 11 11 13 14 15 14 15 18 21 23 22 20 20 21 23 25 24 24 24 24 25 25 25 24 22 20 20
-11 -11 -10 -10 -9 -8 -9 -9 -8 -9 -9 -8 -9 -9 -9 -9 -9 3 9 10 12 13 13 14 14 15 15 13 11 8 12 16 17 18 18 18 18 17 18 18 19 20 20 19 12 10 9 8 8 9 9 10 10 11 11 11 12 12 12 11 11 11 12 14 17 18 19 21 23 25 23 22 22 23 24 24 24 23 23 23 24 23 22 21 20
-11 -12 -11 -10 -9 -8 -8 -9 -9 -9 -10 -9 -9 -8 -9 -9 -10 -9 -7 7 10 11 11 12 12 13 14 14 15 15 15 16 17 17 17 18 18 18 18 18 19 19 18 12 9 8 7 8 8 9 10 10 10 11 11 11 11 11 11 10 10 11 13 15 17 17 18 21 22 22 22 23 23 24 24 24 23 23 22 22 23 22 21 20 19
-13 -12 -10 -10 -9 -10 -9 -9 -9 -9 -9 -8 -9 -9 -9 -8 -8 -8 -8 -8 -8 1 8 10 11 11 11 13 14 14 15 15 16 16 16 17 18 18 18 12 15 15 13 7 7 7 8 8 9 10 10 11 11 11 12 12 12 12 12 11 12 13 15 16 16 17 19 20 21 22 23 23 23 23 23 23 23 22 21 21 21 21 20 19 19
-13 -9 -8 -7 -11 -10 -10 -8 -9 -9 -9 -9 -9 -8 -8 -7 -6 -7 -8 -9 -9 -9 -9 -7 4 11 5 8 12 13 14 15 15 15 16 17 16 16 14 2 2 4 5 5 6 7 8 9 9 9 10 10 11 12 12 13 13 13 12 12 12 13 14 15 16 17 18 20 21 22 23 24 23 23 22 22 22 21 20 20 20 20 19 18 18
-12 -10 -10 -9 -10 -9 -9 -10 -9 -9 -9 -8 -7 -6 -6 -7 -7 -8 -8 -8 -8 -9 -8 -7 -6 6 10 10 10 11 13 13 14 15 15 14 14 13 -1 -2 -1 -1 0 1 2 4 6 7 9 9 10 11 11 13 14 14 13 13 12 12 12 12 12 13 15 17 19 20 21 22 24 23 23 23 22 21 20 20 20 19 19 18 18 18 17
-11 -11 -10 -10 -11 -10 -10 -10 -10 -9 -3 -6 -7 -8 -7 -7 -8 -8 -8 -9 -8 -8 -8 -8 -7 -7 0 -4 0 8 11 12 13 13 12 11 11 1 -3 -2 -1 -1 -1 -1 0 2 4 5 6 6 8 8 10 12 13 14 14 13 14 13 12 12 13 14 16 18 19 20 21 21 22 22 22 22 21 21 20 20 19 18 18 17 17 17 16
-13 -12 -12 -10 -9 -7 -7 -9 -8 -7 -7 -8 -8 -9 -9 -9 -9 -8 -8 -9 -8 -8 -9 -9 -4 -8 -8 -7 -0 -1 -0 10 11 7 5 4 -4 -5 -3 -2 -2 -2 -2 -2 -1 -0 1 2 4 4 5 6 8 11 14 16 15 14 14 14 15 15 18 17 19 20 21 21 21 21 21 22 22 21 20 20 19 19 18 17 17 16 16 16 15
-13 -8 -7 -6 -3 -6 -9 -9 -10 -10 -11 -10 -11 -10 -9 -9 -9 -9 -9 -9 -9 -9 -8 -9 -9 -8 -8 -6 -6 -1 4 -0 -3 -6 -7 -7 -6 -5 -4 -4 -3 -3 -3 -3 -2 -2 -1 -0 2 3 5 6 9 12 14 16 17 16 16 16 16 16 17 18 20 21 20 20 21 21 21 22 22 21 20 20 19 18 18 17 16 15 15 14 14
-12 -13 -11 -7 -8 -8 -9 -9 -10 -12 -11 -11 -11 -11 -10 -10 -11 -10 -10 -10 -10 -9 -9 -9 -9 -8 -7 -6 -2 2 -0 -4 -6 -7 -8 -7 -6 -6 -5 -5 -4 -4 -4 -3 -3 -2 -1 0 1 3 5 7 10 11 13 15 16 18 19 18 18 18 19 19 20 20 20 19 20 20 21 21 21 20 20 19 18 18 17 15 15 15 14 14 14
-16 -13 -10 -7 -8 -10 -12 -12 -13 -13 -13 -12 -11 -11 -12 -10 -9 -9 -10 -10 -9 -9 -9 -9 -9 -8 -6 -1 9 7 -1 -6 -8 -8 -7 -7 -7 -7 -6 -6 -5 -5 -5 -4 -3 -2 -1 0 1 2 5 7 8 10 11 12 13 15 16 18 19 19 20 20 20 20 20 20 19 19 19 19 18 18 17 17 18 17 15 15 14 14 14 13 13
-18 -17 -16 -15 -11 -14 -15 -14 -14 -11 -12 -11 -12 -12 -10 -10 -10 -10 -10 -10 -9 -9 -9 -9 -9 -8 -3 7 7 8 -2 -7 -8 -7 -8 -8 -7 -7 -6 -6 -6 -5 -4 -4 -3 -2 -1 0 1 2 3 5 6 8 9 10 11 13 14 15 16 17 17 18 18 18 18 18 17 17 16 16 16 16 16 18 15 14 13 13 13 13 13 12 11
-16 -16 -16 -14 -15 -16 -15 -15 -14 -14 -13 -13 -12 -9 -9 -10 -11 -11 -11 -11 -10 -10 -10 -9 -9 -8 -8 3 -1 1 -7 -8 -6 -8 -8 -7 -7 -7 -7 -6 -6 -5 -4 -3 -2 -1 -0 0 1 1 3 4 5 6 7 8 10 11 12 13 14 14 14 14 14 14 14 14 14 14 14 15 14 14 14 13 13 12 12 12 12 11 11 11 10
-16 -15 -14 -15 -15 -16 -15 -16 -15 -14 -14 -11 -10 -10 -11 -12 -13 -13 -13 -13 -12 -10 -10 -9 -9 -9 -9 -8 -6 -8 -8 -8 -8 -8 -7 -7 -7 -7 -6 -5 -5 -4 -3 -2 -1 0 1 1 1 1 2 3 4 6 7 8 9 10 11 11 12 12 11 11 12 12 12 12 12 12 12 12 12 12 11 11 11 11 11 10 10 10 10 9 9
-20 -17 -17 -18 -18 -17 -17 -15 -14 -14 -11 -12 -16 -16 -14 -15 -14 -14 -13 -13 -11 -11 -10 -9 -9 -9 -9 -9 -9 -9 -8 -8 -7 -7 -7 -7 -6 -6 -5 -5 -4 -3 -2 -1 -0 1 2 2 2 2 2 3 4 5 6 7 8 9 9 10 10 9 10 10 11 11 12 11 11 11 11 11 10 10 10 10 10 10 9 9 9 9 9 8 8
-18 -17 -17 -17 -16 -15 -15 -16 -13 -15 -16 -16 -17 -17 -16 -16 -17 -15 -13 -13 -12 -11 -11 -11 -11 -10 -10 -10 -10 -9 -9 -8 -8 -7 -6 -6 -6 -5 -4 -4 -3 -3 -2 -1 -0 1 2 3 3 3 3 4 4 5 6 7 8 8 9 9 9 9 10 10 10 10 10 10 10 10 9 9 9 9 9 9 9 9 8 8 8 8 8 8 7
-19 -18 -17 -16 -16 -15 -14 -14 -15 -16 -18 -18 -17 -17 -16 -16 -16 -14 -13 -12 -12 -11 -12 -13 -13 -13 -12 -12 -11 -11 -9 -9 -8 -8 -8 -7 -6 -6 -5 -4 -4 -3 -3 -2 -1 -0 1 2 3 4 4 5 5 5 6 6 7 8 8 9 9 9 9 9 9 9 9 10 9 9 8 8 8 8 8 8 8 8 8 8 7 7 7 7 7
-20 -18 -18 -15 -16 -15 -15 -16 -15 -14 -17 -18 -18 -16 -15 -15 -16 -16 -16 -15 -15 -14 -14 -14 -14 -14 -12 -13 -11 -11 -10 -10 -9 -8 -9 -8 -8 -7 -6 -6 -5 -4 -3 -3 -2 -1 -0 1 2 3 4 5 6 5 6 6 7 7 8 8 9 9 9 9 9 9 9 9 9 8 8 7 7 7 7 7 7 7 7 7 7 7 7 7 8
-19 -18 -18 -17 -16 -15 -15 -15 -16 -18 -19 -19 -18 -18 -17 -18 -18 -18 -18 -17 -17 -16 -17 -16 -15 -15 -14 -13 -12 -12 -11 -10 -11 -10 -10 -10 -9 -9 -8 -7 -6 -6 -5 -4 -3 -2 -1 0 2 3 4 5 6 7 7 7 7 7 7 8 8 8 9 9 8 8 8 8 8 8 7 7 7 7 7 7 7 6 6 6 6 6 7 7 8
-18 -16 -16 -15 -15 -15 -16 -17 -19 -21 -20 -20 -20 -20 -19 -19 -21 -19 -19 -18 -18 -17 -17 -16 -16 -16 -16 -14 -13 -13 -12 -12 -12 -11 -11 -11 -11 -10 -9 -9 -8 -7 -6 -5 -4 -3 -2 -1 1 2 3 4 5 6 7 8 8 8 8 8 8 8 8 9 9 8 7 7 7 7 6 6 6 6 6 6 6 6 6 6 6 6 7 6 6
-16 -15 -15 -16 -16 -16 -18 -20 -21 -22 -22 -21 -23 -23 -21 -22 -21 -21 -20 -20 -19 -18 -17 -17 -17 -16 -16 -16 -14 -14 -14 -13 -12 -12 -12 -12 -12 -11 -11 -10 -9 -9 -8 -7 -6 -5 -3 -2 -0 1 3 4 4 5 6 6 8 9 9 9 9 9 9 8 8 8 8 7 6 6 5 5 5 5 5 5 5 5 5 6 6 5 5 5 4